Regional Weather Roundup
Issued by NWS

Home | Current Version | Previous Version | Text Only | Print | Product List | Glossary Off
Versions: 1 2 3 4 5 6 7 8 9 10 11 12 13 14 15 16 17 18 19 20 21 22 23 24 25 26 27 28 29 30 31 32 33 34 35 36 37 38 39 40 41 42 43 44 45 46 47 48 49 50

103
ASUS44 KLIX 301610
RWRLA
LOUISIANA WEATHER ROUNDUP
NATIONAL WEATHER SERVICE NEW ORLEANS LA
1100 AM CDT TUE SEP 30 2014

NOTE: "FAIR" INDICATES FEW OR NO CLOUDS BELOW 12,000 FEET WITH NO
      SIGNIFICANT WEATHER AND/OR OBSTRUCTIONS TO VISIBILITY.
      SKY/WX - SKY CONDITION AND SIGNIFICANT WEATHER.
      TMP - AIR TEMPERATURE.    DP   - DEWPOINT TEMPERATURE.
      RH  - RELATIVE HUMIDITY.  PRES - PRESSURE.
      HX  - HEAT INDEX.         WCI  - WIND CHILL INDEX.

*  THESE STATIONS ARE NOT NWS OR FAA STATIONS AND ARE NOT UNDER
   NWS QUALITY CONTROL.

LAZ040-048-061>063-065-066-069-301700-
SOUTHEAST LOUISIANA

CITY           SKY/WX    TMP DP  RH WIND       PRES   REMARKS
N.O. AUDUBON     N/A     87  74  66 MISG        N/A  HX  95
N.O. INTL ARPT MOSUNNY   84  73  69 NE6       29.91S
N.O. LAKEFRONT MOSUNNY   81  73  76 NE7       29.91F
N.O. DOWNTOWN* FAIR      82  70  65 CALM      29.92S
SLIDELL        SUNNY     83  70  64 NE6       29.91S
BATON ROUGE    SUNNY     84  70  62 S3        29.91F
BOOTHVILLE     SUNNY     84  76  76 N7        29.91S
BELLE CHASSE   PTSUNNY   84  71  65 E7        29.91S
BOGALUSA*        N/A     84  69  60 SE6       29.94S
GALLIANO*      NOT AVBL
NEW ROADS*     FAIR      82  72  70 SE3       29.92S
GONZALES*      FAIR      84  73  70 E5        29.90F
HAMMOND*       SUNNY     86  68  54 CALM      29.93S
HOUMA*         NOT AVBL
PORT FOURCHON* MOSUNNY   82  73  74 NE5       29.94S

$$

LAZ041-044-053-054-301700-
SOUTHWEST LOUISIANA

CITY           SKY/WX    TMP DP  RH WIND       PRES   REMARKS
LAKE CHARLES   MOSUNNY  N/A N/A N/A E7        29.90S
LAFAYETTE      MOSUNNY   85  72  65 NE7       29.90F
PATTERSON      MOSUNNY   84  73  70 E7          N/A
SALT POINT       N/A     85  74  69 VRB6      29.89F
NEW IBERIA     MOSUNNY   85  72  65 E6        29.91S
CHENAULT AIRPK PTSUNNY   81  73  78 SE5       29.90S

$$

LAZ027-028-301700-
CENTRAL LOUISIANA

CITY           SKY/WX    TMP DP  RH WIND       PRES   REMARKS
FORT POLK      PTSUNNY   84  72  66 SE6       29.91S
ALEXANDRIA INT SUNNY     84  70  62 SE8       29.90S
ALEXANDRIA     SUNNY     84  70  62 VRB3      29.92S

$$

LAZ001-002-301700-
NORTHWEST LOUISIANA

CITY           SKY/WX    TMP DP  RH WIND       PRES   REMARKS
SHREVEPORT     PTSUNNY   83  67  58 SE9       29.91F
BARKSDALE AFB  PTSUNNY   84  66  54 SE6       29.92F
DTN SHREVEPORT MOSUNNY   81  65  58 SE6       29.92F

$$

LAZ014-016-301700-
NORTHEAST LOUISIANA

CITY           SKY/WX    TMP DP  RH WIND       PRES   REMARKS
MONROE         CLOUDY    80  67  64 CALM      29.94S
TALLULAH       SUNNY     84  67  56 SE6       29.93S

$$




USA.gov is the U.S. government's official web portal to all federal, state and local government web resources and services.